Location: Unspecified
(43.4680°N, 87.1740°E)
Time: 21:46:24
(UTC+00:00)

COSMOS 2428 - Pass Details

Date: 17 April 2021
Orbit: 844 x 859 km, 70.9° (Epoch: 12 May)

Event Time Altitude Azimuth Distance (km) Brightness Sun altitude
Rises 14:00:55 0° 339° (NNW) 3,441 6.7 -11.7°
Reaches altitude 10° 14:03:29 10° 345° (NNW) 2,502 5.8 -12.1°
Maximum altitude 14:09:02 48° 59° (ENE) 1,116 3.1 -13.0°
Enters shadow 14:12:57 19° 126° (SE) 1,931 3.9 -13.6°
